Time,TemperatureF,DewpointF,PressureIn,WindDirection,WindDirectionDegrees,WindSpeedMPH,WindSpeedGustMPH,Humidity,HourlyPrecipIn,Conditions,Clouds,dailyrainin,SolarRadiationWatts/m^2,SoftwareType,DateUTC
2013-04-04 00:03:00,44.9,40.6,30.40,NNW,334,2.0,0.0,85,0.00,,,0.00,1,WeatherHawk,2013-04-04 06:03:00,
2013-04-04 00:09:00,44.9,40.4,30.40,NW,322,5.0,0.0,84,0.00,,,0.00,0,WeatherHawk,2013-04-04 06:09:00,
2013-04-04 00:14:00,44.8,39.6,30.39,WNW,291,8.0,0.0,82,0.00,,,0.00,0,WeatherHawk,2013-04-04 06:14:00,
2013-04-04 00:20:00,44.8,39.4,30.40,NW,319,10.0,0.0,81,0.00,,,0.00,1,WeatherHawk,2013-04-04 06:20:00,
2013-04-04 00:25:00,44.9,39.7,30.39,West,278,4.0,0.0,82,0.00,,,0.00,1,WeatherHawk,2013-04-04 06:25:00,
2013-04-04 00:30:00,44.9,39.7,30.40,North,350,3.0,0.0,82,0.00,,,0.00,0,WeatherHawk,2013-04-04 06:30:00,
2013-04-04 00:35:00,44.8,39.3,30.40,WNW,283,6.0,0.0,81,0.00,,,0.00,1,WeatherHawk,2013-04-04 06:35:00,
2013-04-04 00:40:00,44.8,39.0,30.40,West,277,9.0,0.0,80,0.00,,,0.00,1,WeatherHawk,2013-04-04 06:40:00,
2013-04-04 00:45:00,45.0,39.5,30.39,NW,307,4.0,0.0,81,0.00,,,0.00,0,WeatherHawk,2013-04-04 06:45:00,
2013-04-04 00:50:00,44.8,38.0,30.39,NE,45,6.0,-999.0,77,0.00,,,0.00,1,WeatherHawk,2013-04-04 06:50:00,
2013-04-04 00:55:00,44.7,37.9,30.40,North,350,12.0,0.0,77,0.00,,,0.00,1,WeatherHawk,2013-04-04 06:55:00,
2013-04-04 01:00:00,44.7,38.3,30.38,NNW,339,7.0,0.0,78,0.00,,,0.00,0,WeatherHawk,2013-04-04 07:00:00,
2013-04-04 01:05:00,44.1,38.0,30.40,NW,314,8.0,0.0,79,0.00,,,0.00,2,WeatherHawk,2013-04-04 07:05:00,
2013-04-04 01:10:00,44.0,38.6,30.38,NW,316,10.0,0.0,81,0.00,,,0.00,0,WeatherHawk,2013-04-04 07:10:00,
2013-04-04 01:16:00,44.3,39.5,30.39,NNW,334,5.0,0.0,83,0.00,,,0.00,0,WeatherHawk,2013-04-04 07:16:00,
2013-04-04 01:21:00,44.1,39.3,30.38,North,0,9.0,0.0,83,0.00,,,0.00,1,WeatherHawk,2013-04-04 07:21:00,
2013-04-04 01:27:00,44.0,39.5,30.38,WNW,303,10.0,0.0,84,0.00,,,0.00,0,WeatherHawk,2013-04-04 07:27:00,
2013-04-04 01:32:00,43.9,40.0,30.38,NW,307,6.0,0.0,86,0.00,,,0.00,0,WeatherHawk,2013-04-04 07:32:00,
2013-04-04 01:37:00,43.5,39.9,30.39,NNW,327,6.0,0.0,87,0.00,,,0.00,0,WeatherHawk,2013-04-04 07:37:00,
2013-04-04 01:42:00,43.3,40.3,30.39,WNW,301,8.0,0.0,89,0.00,,,0.00,0,WeatherHawk,2013-04-04 07:42:00,
2013-04-04 01:47:00,43.6,40.9,30.38,NW,322,5.0,0.0,90,0.00,,,0.00,0,WeatherHawk,2013-04-04 07:47:00,
2013-04-04 01:53:00,43.8,41.0,30.39,NNW,331,8.0,0.0,90,0.00,,,0.00,0,WeatherHawk,2013-04-04 07:53:00,
2013-04-04 01:58:00,43.9,40.9,30.39,West,274,6.0,0.0,89,0.00,,,0.00,0,WeatherHawk,2013-04-04 07:58:00,
2013-04-04 02:03:00,44.1,40.8,30.39,WNW,292,4.0,0.0,88,0.00,,,0.00,0,WeatherHawk,2013-04-04 08:03:00,
2013-04-04 02:08:00,44.1,40.2,30.38,North,351,4.0,0.0,86,0.00,,,0.00,0,WeatherHawk,2013-04-04 08:08:00,
2013-04-04 02:13:00,44.1,39.8,30.39,NNW,333,2.0,0.0,85,0.00,,,0.00,1,WeatherHawk,2013-04-04 08:13:00,
2013-04-04 02:19:00,44.3,39.2,30.38,NNW,332,2.0,0.0,82,0.00,,,0.00,1,WeatherHawk,2013-04-04 08:19:00,
2013-04-04 02:25:00,44.1,38.7,30.37,NNE,18,4.0,0.0,81,0.00,,,0.00,0,WeatherHawk,2013-04-04 08:25:00,
2013-04-04 02:30:00,44.0,38.2,30.37,NNW,332,2.0,0.0,80,0.00,,,0.00,0,WeatherHawk,2013-04-04 08:30:00,
2013-04-04 02:35:00,43.9,38.4,30.37,NW,313,5.0,0.0,81,0.00,,,0.00,0,WeatherHawk,2013-04-04 08:35:00,
2013-04-04 02:40:00,43.8,38.3,30.37,NNW,333,7.0,0.0,81,0.00,,,0.00,0,WeatherHawk,2013-04-04 08:40:00,
2013-04-04 02:45:00,43.7,38.6,30.37,NE,37,3.0,0.0,82,0.00,,,0.00,0,WeatherHawk,2013-04-04 08:45:00,
2013-04-04 02:50:00,43.5,38.7,30.37,NNW,337,5.0,0.0,83,0.00,,,0.00,0,WeatherHawk,2013-04-04 08:50:00,
2013-04-04 02:55:00,43.3,38.5,30.37,North,1,4.0,-999.0,83,0.00,,,0.00,1,WeatherHawk,2013-04-04 08:55:00,
2013-04-04 03:00:00,43.6,39.1,30.38,NNW,340,7.0,0.0,84,0.00,,,0.00,1,WeatherHawk,2013-04-04 09:00:00,
2013-04-04 03:05:00,43.7,38.9,30.37,NW,321,8.0,0.0,83,0.00,,,0.00,0,WeatherHawk,2013-04-04 09:05:00,
2013-04-04 03:10:00,43.6,38.7,30.37,WSW,240,6.0,0.0,83,0.00,,,0.00,0,WeatherHawk,2013-04-04 09:10:00,
2013-04-04 03:15:00,43.4,38.9,30.37,NNW,340,8.0,0.0,84,0.00,,,0.00,0,WeatherHawk,2013-04-04 09:15:00,
2013-04-04 03:21:00,43.5,39.3,30.37,NW,326,3.0,0.0,85,0.00,,,0.00,0,WeatherHawk,2013-04-04 09:21:00,
2013-04-04 03:26:00,43.7,39.8,30.38,NW,324,5.0,0.0,86,0.00,,,0.00,0,WeatherHawk,2013-04-04 09:26:00,
2013-04-04 03:31:00,43.7,39.8,30.36,NNW,335,5.0,0.0,86,0.00,,,0.00,0,WeatherHawk,2013-04-04 09:31:00,
2013-04-04 03:37:00,43.7,39.8,30.37,NW,323,6.0,0.0,86,0.00,,,0.00,0,WeatherHawk,2013-04-04 09:37:00,
2013-04-04 03:42:00,43.4,39.2,30.36,NW,322,5.0,0.0,85,0.00,,,0.00,0,WeatherHawk,2013-04-04 09:42:00,
2013-04-04 03:47:00,43.8,39.6,30.37,NNW,344,5.0,0.0,85,0.00,,,0.00,0,WeatherHawk,2013-04-04 09:47:00,
2013-04-04 03:52:00,43.9,38.8,30.36,NW,317,9.0,0.0,82,0.00,,,0.00,0,WeatherHawk,2013-04-04 09:52:00,
2013-04-04 03:58:00,43.9,38.5,30.38,NNW,331,10.0,0.0,81,0.00,,,0.00,0,WeatherHawk,2013-04-04 09:58:00,
2013-04-04 04:03:00,44.1,38.3,30.36,NW,322,10.0,0.0,80,0.00,,,0.00,0,WeatherHawk,2013-04-04 10:03:00,
2013-04-04 04:08:00,44.1,38.0,30.37,NNW,341,4.0,0.0,79,0.00,,,0.00,0,WeatherHawk,2013-04-04 10:08:00,
2013-04-04 04:13:00,44.1,38.0,30.37,NNW,328,5.0,0.0,79,0.00,,,0.00,1,WeatherHawk,2013-04-04 10:13:00,
2013-04-04 04:18:00,44.0,37.3,30.37,NNW,332,10.0,0.0,77,0.00,,,0.00,0,WeatherHawk,2013-04-04 10:18:00,
2013-04-04 04:23:00,44.0,37.3,30.37,WNW,303,1.0,0.0,77,0.00,,,0.00,1,WeatherHawk,2013-04-04 10:23:00,
2013-04-04 04:28:00,44.0,37.6,30.37,NNW,331,7.0,0.0,78,0.00,,,0.00,1,WeatherHawk,2013-04-04 10:28:00,
2013-04-04 04:33:00,44.0,37.3,30.37,NNW,340,6.0,0.0,77,0.00,,,0.00,1,WeatherHawk,2013-04-04 10:33:00,
2013-04-04 04:39:00,44.1,37.4,30.37,NNW,332,5.0,0.0,77,0.00,,,0.00,1,WeatherHawk,2013-04-04 10:39:00,
2013-04-04 04:45:00,44.2,37.4,30.37,North,1,6.0,0.0,77,0.00,,,0.00,0,WeatherHawk,2013-04-04 10:45:00,
2013-04-04 04:50:00,44.2,37.1,30.37,NNW,331,7.0,0.0,76,0.00,,,0.00,0,WeatherHawk,2013-04-04 10:50:00,
2013-04-04 04:55:00,44.2,37.1,30.36,NNW,332,9.0,0.0,76,0.00,,,0.00,1,WeatherHawk,2013-04-04 10:55:00,
2013-04-04 05:00:00,44.3,37.6,30.37,NNW,333,6.0,0.0,77,0.00,,,0.00,0,WeatherHawk,2013-04-04 11:00:00,
2013-04-04 05:05:00,44.2,37.4,30.38,NNE,23,6.0,0.0,77,0.00,,,0.00,0,WeatherHawk,2013-04-04 11:05:00,
2013-04-04 05:10:00,44.1,37.4,30.37,WNW,298,5.0,0.0,77,0.00,,,0.00,0,WeatherHawk,2013-04-04 11:10:00,
2013-04-04 05:15:00,44.2,37.2,30.38,NW,315,6.0,0.0,76,0.00,,,0.00,2,WeatherHawk,2013-04-04 11:15:00,
2013-04-04 05:20:00,44.1,36.7,30.38,NNW,333,7.0,0.0,75,0.00,,,0.00,0,WeatherHawk,2013-04-04 11:20:00,
2013-04-04 05:25:00,44.0,37.2,30.38,NNW,337,5.0,0.0,77,0.00,,,0.00,0,WeatherHawk,2013-04-04 11:25:00,
2013-04-04 05:30:00,43.9,36.5,30.38,NW,306,9.0,0.0,75,0.00,,,0.00,0,WeatherHawk,2013-04-04 11:30:00,
2013-04-04 05:35:00,43.9,36.2,30.38,NNW,331,11.0,0.0,74,0.00,,,0.00,0,WeatherHawk,2013-04-04 11:35:00,
2013-04-04 05:40:00,43.9,36.2,30.38,NW,305,5.0,0.0,74,0.00,,,0.00,1,WeatherHawk,2013-04-04 11:40:00,
2013-04-04 05:45:00,43.9,36.2,30.38,NW,313,4.0,0.0,74,0.00,,,0.00,0,WeatherHawk,2013-04-04 11:45:00,
2013-04-04 05:50:00,44.1,35.6,30.37,NW,318,7.0,-999.0,72,0.00,,,0.00,0,WeatherHawk,2013-04-04 11:50:00,
2013-04-04 05:55:00,43.9,35.2,30.39,NW,308,7.0,0.0,71,0.00,,,0.00,0,WeatherHawk,2013-04-04 11:55:00,
2013-04-04 06:00:00,43.9,35.2,30.38,NNW,345,6.0,0.0,71,0.00,,,0.00,1,WeatherHawk,2013-04-04 12:00:00,
2013-04-04 06:05:00,44.0,34.9,30.39,NNE,13,10.0,0.0,70,0.00,,,0.00,0,WeatherHawk,2013-04-04 12:05:00,
2013-04-04 06:10:00,44.0,34.8,30.39,West,276,4.0,0.0,70,0.00,,,0.00,1,WeatherHawk,2013-04-04 12:10:00,
2013-04-04 06:15:00,44.0,34.9,30.39,West,260,6.0,0.0,70,0.00,,,0.00,0,WeatherHawk,2013-04-04 12:15:00,
2013-04-04 06:20:00,44.3,35.1,30.39,NW,322,6.0,0.0,70,0.00,,,0.00,2,WeatherHawk,2013-04-04 12:20:00,
2013-04-04 06:25:00,44.1,34.9,30.39,NW,310,8.0,0.0,70,0.00,,,0.00,2,WeatherHawk,2013-04-04 12:25:00,
2013-04-04 06:30:00,44.1,34.6,30.39,WNW,301,9.0,0.0,69,0.00,,,0.00,1,WeatherHawk,2013-04-04 12:30:00,
2013-04-04 06:35:00,44.0,34.5,30.39,NW,325,7.0,0.0,69,0.00,,,0.00,2,WeatherHawk,2013-04-04 12:35:00,
2013-04-04 06:40:00,44.1,34.6,30.39,NE,35,9.0,0.0,69,0.00,,,0.00,2,WeatherHawk,2013-04-04 12:40:00,
2013-04-04 06:45:00,44.3,35.5,30.40,WNW,296,5.0,0.0,71,0.00,,,0.00,4,WeatherHawk,2013-04-04 12:45:00,
2013-04-04 06:51:00,44.1,35.6,30.40,NW,323,5.0,0.0,72,0.00,,,0.00,6,WeatherHawk,2013-04-04 12:51:00,
2013-04-04 06:56:00,44.3,36.2,30.39,North,351,3.0,0.0,73,0.00,,,0.00,11,WeatherHawk,2013-04-04 12:56:00,
2013-04-04 07:01:00,44.3,35.8,30.40,West,267,6.0,0.0,72,0.00,,,0.00,15,WeatherHawk,2013-04-04 13:01:00,
2013-04-04 07:06:00,44.3,35.1,30.40,WSW,246,6.0,0.0,70,0.00,,,0.00,16,WeatherHawk,2013-04-04 13:06:00,
2013-04-04 07:11:00,44.4,36.0,30.41,NNE,30,2.0,0.0,72,0.00,,,0.00,13,WeatherHawk,2013-04-04 13:11:00,
2013-04-04 07:16:00,44.3,35.8,30.40,NW,310,4.0,0.0,72,0.00,,,0.00,15,WeatherHawk,2013-04-04 13:16:00,
2013-04-04 07:22:00,44.4,35.6,30.40,WNW,300,8.0,0.0,71,0.00,,,0.00,13,WeatherHawk,2013-04-04 13:22:00,
2013-04-04 07:27:00,44.5,35.3,30.40,NW,322,5.0,0.0,70,0.00,,,0.00,18,WeatherHawk,2013-04-04 13:27:00,
2013-04-04 07:32:00,44.3,35.1,30.40,NNW,327,3.0,0.0,70,0.00,,,0.00,27,WeatherHawk,2013-04-04 13:32:00,
2013-04-04 07:38:00,44.5,35.0,30.40,NW,319,6.0,0.0,69,0.00,,,0.00,39,WeatherHawk,2013-04-04 13:38:00,
2013-04-04 07:43:00,44.3,34.4,30.41,NW,315,8.0,0.0,68,0.00,,,0.00,35,WeatherHawk,2013-04-04 13:43:00,
2013-04-04 07:48:00,44.5,35.0,30.40,NNW,347,4.0,0.0,69,0.00,,,0.00,42,WeatherHawk,2013-04-04 13:48:00,
2013-04-04 07:54:00,44.4,34.1,30.40,WNW,293,7.0,0.0,67,0.00,,,0.00,27,WeatherHawk,2013-04-04 13:54:00,
2013-04-04 07:59:00,44.2,33.1,30.41,NW,321,9.0,0.0,65,0.00,,,0.00,24,WeatherHawk,2013-04-04 13:59:00,
2013-04-04 08:05:00,44.3,32.9,30.40,NW,321,12.0,0.0,64,0.00,,,0.00,25,WeatherHawk,2013-04-04 14:05:00,
2013-04-04 08:10:00,44.3,33.3,30.41,NNE,12,10.0,-999.0,65,0.00,,,0.00,24,WeatherHawk,2013-04-04 14:10:00,
2013-04-04 08:15:00,44.3,33.3,30.41,NW,313,8.0,0.0,65,0.00,,,0.00,35,WeatherHawk,2013-04-04 14:15:00,
2013-04-04 08:20:00,44.4,33.4,30.41,NW,322,8.0,0.0,65,0.00,,,0.00,32,WeatherHawk,2013-04-04 14:20:00,
2013-04-04 08:25:00,44.6,33.9,30.42,NW,324,3.0,0.0,66,0.00,,,0.00,53,WeatherHawk,2013-04-04 14:25:00,
2013-04-04 08:30:00,44.5,34.3,30.42,NW,312,6.0,0.0,67,0.00,,,0.00,43,WeatherHawk,2013-04-04 14:30:00,
2013-04-04 08:35:00,44.3,32.9,30.41,NW,321,11.0,0.0,64,0.00,,,0.00,51,WeatherHawk,2013-04-04 14:35:00,
2013-04-04 08:40:00,44.5,32.7,30.42,NW,325,3.0,0.0,63,0.00,,,0.00,57,WeatherHawk,2013-04-04 14:40:00,
2013-04-04 08:45:00,44.4,32.2,30.42,NW,306,11.0,0.0,62,0.00,,,0.00,77,WeatherHawk,2013-04-04 14:45:00,
2013-04-04 08:50:00,44.8,32.6,30.42,NNW,331,7.0,0.0,62,0.00,,,0.00,69,WeatherHawk,2013-04-04 14:50:00,
2013-04-04 08:55:00,44.7,32.1,30.43,NW,318,6.0,0.0,61,0.00,,,0.00,69,WeatherHawk,2013-04-04 14:55:00,
2013-04-04 09:00:00,44.5,31.5,30.43,North,0,10.0,0.0,60,0.00,,,0.00,74,WeatherHawk,2013-04-04 15:00:00,
2013-04-04 09:05:00,44.8,31.7,30.43,North,3,7.0,0.0,60,0.00,,,0.00,94,WeatherHawk,2013-04-04 15:05:00,
2013-04-04 09:10:00,44.8,31.3,30.43,NNW,338,5.0,0.0,59,0.00,,,0.00,83,WeatherHawk,2013-04-04 15:10:00,
2013-04-04 09:16:00,44.9,31.8,30.43,NW,320,6.0,0.0,60,0.00,,,0.00,69,WeatherHawk,2013-04-04 15:16:00,
2013-04-04 09:21:00,44.9,31.5,30.42,NW,315,3.0,0.0,59,0.00,,,0.00,86,WeatherHawk,2013-04-04 15:21:00,
2013-04-04 09:25:00,45.1,30.7,30.42,WNW,293,7.0,0.0,57,0.00,,,0.00,92,WeatherHawk,2013-04-04 15:25:00,
2013-04-04 09:31:00,45.3,31.4,30.43,NW,325,9.0,0.0,58,0.00,,,0.00,108,WeatherHawk,2013-04-04 15:31:00,
2013-04-04 09:36:00,45.0,30.3,30.43,NNW,346,13.0,0.0,56,0.00,,,0.00,96,WeatherHawk,2013-04-04 15:36:00,
2013-04-04 09:41:00,45.2,30.4,30.45,NW,313,10.0,0.0,56,0.00,,,0.00,95,WeatherHawk,2013-04-04 15:41:00,
2013-04-04 09:47:00,45.4,30.6,30.44,NNW,338,7.0,0.0,56,0.00,,,0.00,150,WeatherHawk,2013-04-04 15:47:00,
2013-04-04 09:52:00,45.3,30.1,30.44,NW,304,9.0,0.0,55,0.00,,,0.00,146,WeatherHawk,2013-04-04 15:52:00,
2013-04-04 09:57:00,46.0,30.7,30.43,NW,304,4.0,0.0,55,0.00,,,0.00,161,WeatherHawk,2013-04-04 15:57:00,
2013-04-04 10:02:00,46.2,30.9,30.44,WNW,296,6.0,0.0,55,0.00,,,0.00,167,WeatherHawk,2013-04-04 16:02:00,
2013-04-04 10:08:00,45.6,29.5,30.44,NW,325,11.0,0.0,53,0.00,,,0.00,159,WeatherHawk,2013-04-04 16:08:00,
2013-04-04 10:13:00,45.5,29.4,30.43,NW,318,9.0,0.0,53,0.00,,,0.00,111,WeatherHawk,2013-04-04 16:13:00,
2013-04-04 10:18:00,45.6,29.5,30.44,NW,320,11.0,0.0,53,0.00,,,0.00,102,WeatherHawk,2013-04-04 16:18:00,
2013-04-04 10:23:00,45.5,29.8,30.44,NW,316,12.0,0.0,54,0.00,,,0.00,75,WeatherHawk,2013-04-04 16:23:00,
2013-04-04 10:29:00,45.5,30.3,30.45,NW,311,12.0,0.0,55,0.00,,,0.00,80,WeatherHawk,2013-04-04 16:29:00,
2013-04-04 10:34:00,45.5,30.7,30.45,NNW,337,9.0,0.0,56,0.00,,,0.00,94,WeatherHawk,2013-04-04 16:34:00,
2013-04-04 10:40:00,45.3,30.6,30.45,NW,324,6.0,0.0,56,0.00,,,0.00,97,WeatherHawk,2013-04-04 16:40:00,
2013-04-04 10:45:00,45.3,31.0,30.45,NW,326,13.0,-999.0,57,0.00,,,0.00,61,WeatherHawk,2013-04-04 16:45:00,
2013-04-04 10:50:00,45.3,31.4,30.45,NNW,336,14.0,0.0,58,0.00,,,0.00,74,WeatherHawk,2013-04-04 16:50:00,
2013-04-04 10:55:00,45.3,31.8,30.45,NNW,333,10.0,0.0,59,0.00,,,0.00,63,WeatherHawk,2013-04-04 16:55:00,
2013-04-04 11:00:00,45.3,31.4,30.44,ENE,63,8.0,-999.0,58,0.00,,,0.00,136,WeatherHawk,2013-04-04 17:00:00,
2013-04-04 11:05:00,45.8,31.5,30.45,NW,304,7.0,0.0,57,0.00,,,0.00,157,WeatherHawk,2013-04-04 17:05:00,
2013-04-04 11:10:00,45.6,30.0,30.45,NW,325,11.0,-999.0,54,0.00,,,0.00,125,WeatherHawk,2013-04-04 17:10:00,
2013-04-04 11:15:00,45.8,30.6,30.46,NNW,340,8.0,-999.0,55,0.00,,,0.00,85,WeatherHawk,2013-04-04 17:15:00,
2013-04-04 11:20:00,45.9,30.2,30.45,NNW,342,12.0,0.0,54,0.00,,,0.00,80,WeatherHawk,2013-04-04 17:20:00,
2013-04-04 11:25:00,46.1,30.4,30.47,North,351,7.0,0.0,54,0.00,,,0.00,84,WeatherHawk,2013-04-04 17:25:00,
2013-04-04 11:30:00,46.2,29.6,30.45,West,260,9.0,0.0,52,0.00,,,0.00,77,WeatherHawk,2013-04-04 17:30:00,
2013-04-04 11:35:00,46.2,29.1,30.45,NNW,329,11.0,0.0,51,0.00,,,0.00,94,WeatherHawk,2013-04-04 17:35:00,
2013-04-04 11:40:00,46.3,29.1,30.44,NNW,341,8.0,0.0,51,0.00,,,0.00,122,WeatherHawk,2013-04-04 17:40:00,
2013-04-04 11:45:00,46.2,29.1,30.45,NW,320,9.0,0.0,51,0.00,,,0.00,117,WeatherHawk,2013-04-04 17:45:00,
2013-04-04 11:50:00,46.3,28.2,30.45,WNW,298,8.0,0.0,49,0.00,,,0.00,132,WeatherHawk,2013-04-04 17:50:00,
2013-04-04 11:55:00,46.8,29.6,30.44,NNW,348,7.0,0.0,51,0.00,,,0.00,163,WeatherHawk,2013-04-04 17:55:00,
2013-04-04 12:00:00,46.9,29.7,30.44,NNW,327,5.0,0.0,51,0.00,,,0.00,77,WeatherHawk,2013-04-04 18:00:00,
2013-04-04 12:05:00,46.7,29.5,30.44,WNW,297,5.0,0.0,51,0.00,,,0.00,69,WeatherHawk,2013-04-04 18:05:00,
2013-04-04 12:10:00,46.5,28.9,30.43,WNW,299,12.0,0.0,50,0.00,,,0.00,160,WeatherHawk,2013-04-04 18:10:00,
2013-04-04 12:15:00,46.9,29.2,30.43,WNW,295,10.0,0.0,50,0.00,,,0.00,230,WeatherHawk,2013-04-04 18:15:00,
2013-04-04 12:20:00,47.0,28.9,30.44,NW,305,10.0,0.0,49,0.00,,,0.00,216,WeatherHawk,2013-04-04 18:20:00,
2013-04-04 12:25:00,48.3,29.5,30.42,West,267,6.0,0.0,48,0.00,,,0.00,299,WeatherHawk,2013-04-04 18:25:00,
2013-04-04 12:30:00,49.1,28.7,30.41,NW,317,10.0,0.0,45,0.00,,,0.00,658,WeatherHawk,2013-04-04 18:30:00,
2013-04-04 12:35:00,49.0,27.5,30.41,North,7,5.0,0.0,43,0.00,,,0.00,281,WeatherHawk,2013-04-04 18:35:00,
2013-04-04 12:40:00,47.5,25.6,30.40,NNW,333,12.0,0.0,42,0.00,,,0.00,210,WeatherHawk,2013-04-04 18:40:00,
2013-04-04 12:45:00,48.0,26.5,30.41,WNW,299,14.0,0.0,43,0.00,,,0.00,276,WeatherHawk,2013-04-04 18:45:00,
2013-04-04 12:50:00,49.3,27.1,30.40,North,11,11.0,0.0,42,0.00,,,0.00,930,WeatherHawk,2013-04-04 18:50:00,
2013-04-04 12:55:00,49.1,25.8,30.40,North,0,11.0,0.0,40,0.00,,,0.00,406,WeatherHawk,2013-04-04 18:55:00,
2013-04-04 13:00:00,48.9,24.5,30.40,NNE,18,12.0,0.0,38,0.00,,,0.00,280,WeatherHawk,2013-04-04 19:00:00,
2013-04-04 13:06:00,48.7,24.9,30.39,NNW,338,14.0,0.0,39,0.00,,,0.00,216,WeatherHawk,2013-04-04 19:06:00,
2013-04-04 13:11:00,49.4,26.7,30.39,West,278,9.0,0.0,41,0.00,,,0.00,272,WeatherHawk,2013-04-04 19:11:00,
2013-04-04 13:17:00,49.2,26.5,30.40,NW,310,11.0,0.0,41,0.00,,,0.00,320,WeatherHawk,2013-04-04 19:17:00,
2013-04-04 13:22:00,49.8,27.1,30.40,North,0,7.0,0.0,41,0.00,,,0.00,291,WeatherHawk,2013-04-04 19:22:00,
2013-04-04 13:27:00,49.7,25.7,30.40,ENE,73,6.0,0.0,39,0.00,,,0.00,206,WeatherHawk,2013-04-04 19:27:00,
2013-04-04 13:32:00,48.6,25.4,30.39,NNW,334,15.0,0.0,40,0.00,,,0.00,238,WeatherHawk,2013-04-04 19:32:00,
2013-04-04 13:37:00,49.1,25.9,30.40,WNW,303,9.0,0.0,40,0.00,,,0.00,322,WeatherHawk,2013-04-04 19:37:00,
2013-04-04 13:42:00,49.0,25.8,30.40,NW,316,10.0,0.0,40,0.00,,,0.00,277,WeatherHawk,2013-04-04 19:42:00,
2013-04-04 13:47:00,48.5,24.7,30.39,NW,323,17.0,0.0,39,0.00,,,0.00,334,WeatherHawk,2013-04-04 19:47:00,
2013-04-04 13:52:00,49.9,25.9,30.38,NW,308,9.0,0.0,39,0.00,,,0.00,363,WeatherHawk,2013-04-04 19:52:00,
2013-04-04 13:57:00,50.1,26.1,30.39,North,349,8.0,0.0,39,0.00,,,0.00,380,WeatherHawk,2013-04-04 19:57:00,
2013-04-04 14:02:00,50.2,26.8,30.39,WNW,282,9.0,0.0,40,0.00,,,0.00,291,WeatherHawk,2013-04-04 20:02:00,
2013-04-04 14:07:00,50.4,27.0,30.38,SSW,199,5.0,0.0,40,0.00,,,0.00,262,WeatherHawk,2013-04-04 20:07:00,
2013-04-04 14:13:00,49.1,24.6,30.38,West,281,9.0,0.0,38,0.00,,,0.00,232,WeatherHawk,2013-04-04 20:13:00,
2013-04-04 14:18:00,48.8,24.9,30.38,NW,321,16.0,0.0,39,0.00,,,0.00,229,WeatherHawk,2013-04-04 20:18:00,
2013-04-04 14:23:00,49.2,25.3,30.37,NNW,327,11.0,0.0,39,0.00,,,0.00,327,WeatherHawk,2013-04-04 20:23:00,
2013-04-04 14:28:00,49.9,25.4,30.38,North,9,5.0,0.0,38,0.00,,,0.00,214,WeatherHawk,2013-04-04 20:28:00,
2013-04-04 14:33:00,49.7,25.7,30.37,North,4,8.0,0.0,39,0.00,,,0.00,201,WeatherHawk,2013-04-04 20:33:00,
2013-04-04 14:38:00,49.6,25.6,30.37,NNW,332,11.0,0.0,39,0.00,,,0.00,178,WeatherHawk,2013-04-04 20:38:00,
2013-04-04 14:43:00,49.7,26.4,30.37,NNW,338,11.0,0.0,40,0.00,,,0.00,195,WeatherHawk,2013-04-04 20:43:00,
2013-04-04 14:48:00,50.7,27.8,30.38,West,272,5.0,0.0,41,0.00,,,0.00,218,WeatherHawk,2013-04-04 20:48:00,
2013-04-04 14:53:00,49.4,25.5,30.37,NNW,337,10.0,0.0,39,0.00,,,0.00,194,WeatherHawk,2013-04-04 20:53:00,
2013-04-04 14:58:00,50.3,26.3,30.37,NW,306,7.0,0.0,39,0.00,,,0.00,222,WeatherHawk,2013-04-04 20:58:00,
2013-04-04 15:03:00,49.9,26.6,30.37,WNW,302,11.0,0.0,40,0.00,,,0.00,230,WeatherHawk,2013-04-04 21:03:00,
2013-04-04 15:08:00,49.9,26.5,30.36,NW,314,12.0,0.0,40,0.00,,,0.00,170,WeatherHawk,2013-04-04 21:08:00,
2013-04-04 15:13:00,49.8,26.5,30.36,NNW,342,13.0,0.0,40,0.00,,,0.00,126,WeatherHawk,2013-04-04 21:13:00,
2013-04-04 15:18:00,50.1,26.7,30.37,NNW,328,13.0,0.0,40,0.00,,,0.00,139,WeatherHawk,2013-04-04 21:18:00,
2013-04-04 15:24:00,50.0,26.0,30.36,North,2,13.0,0.0,39,0.00,,,0.00,96,WeatherHawk,2013-04-04 21:24:00,
2013-04-04 15:29:00,49.9,26.5,30.36,NNW,331,10.0,0.0,40,0.00,,,0.00,143,WeatherHawk,2013-04-04 21:29:00,
2013-04-04 15:34:00,50.2,26.8,30.36,NW,318,10.0,0.0,40,0.00,,,0.00,215,WeatherHawk,2013-04-04 21:34:00,
2013-04-04 15:39:00,50.5,26.5,30.36,WNW,303,6.0,0.0,39,0.00,,,0.00,118,WeatherHawk,2013-04-04 21:39:00,
2013-04-04 15:44:00,50.2,26.8,30.36,NW,308,13.0,0.0,40,0.00,,,0.00,78,WeatherHawk,2013-04-04 21:44:00,
2013-04-04 15:50:00,49.9,27.2,30.36,NW,325,11.0,0.0,41,0.00,,,0.00,53,WeatherHawk,2013-04-04 21:50:00,
2013-04-04 15:55:00,49.8,26.4,30.37,WNW,291,10.0,0.0,40,0.00,,,0.00,102,WeatherHawk,2013-04-04 21:55:00,
2013-04-04 16:00:00,49.8,26.4,30.37,NW,323,16.0,0.0,40,0.00,,,0.00,89,WeatherHawk,2013-04-04 22:00:00,
2013-04-04 16:05:00,49.9,27.1,30.37,NW,325,11.0,0.0,41,0.00,,,0.00,123,WeatherHawk,2013-04-04 22:05:00,
2013-04-04 16:10:00,50.4,28.2,30.37,NW,325,9.0,0.0,42,0.00,,,0.00,157,WeatherHawk,2013-04-04 22:10:00,
2013-04-04 16:15:00,50.0,26.6,30.37,NW,317,10.0,0.0,40,0.00,,,0.00,137,WeatherHawk,2013-04-04 22:15:00,
2013-04-04 16:20:00,51.1,28.2,30.36,NE,53,4.0,0.0,41,0.00,,,0.00,178,WeatherHawk,2013-04-04 22:20:00,
2013-04-04 16:25:00,51.0,26.9,30.36,NW,309,5.0,0.0,39,0.00,,,0.00,261,WeatherHawk,2013-04-04 22:25:00,
2013-04-04 16:31:00,51.3,27.8,30.35,NNW,335,7.0,0.0,40,0.00,,,0.00,230,WeatherHawk,2013-04-04 22:31:00,
2013-04-04 16:36:00,50.5,25.2,30.37,NNW,330,13.0,0.0,37,0.00,,,0.00,298,WeatherHawk,2013-04-04 22:36:00,
2013-04-04 16:41:00,51.0,26.3,30.36,NE,37,8.0,0.0,38,0.00,,,0.00,222,WeatherHawk,2013-04-04 22:41:00,
2013-04-04 16:46:00,50.9,26.2,30.36,NNW,335,11.0,0.0,38,0.00,,,0.00,144,WeatherHawk,2013-04-04 22:46:00,
2013-04-04 16:52:00,50.2,25.6,30.37,NNW,342,11.0,0.0,38,0.00,,,0.00,145,WeatherHawk,2013-04-04 22:52:00,
2013-04-04 16:57:00,50.6,26.6,30.37,NW,325,10.0,0.0,39,0.00,,,0.00,95,WeatherHawk,2013-04-04 22:57:00,
2013-04-04 17:03:00,51.0,27.5,30.37,NNW,332,6.0,0.0,40,0.00,,,0.00,91,WeatherHawk,2013-04-04 23:03:00,
2013-04-04 17:08:00,50.6,27.2,30.38,NNW,336,7.0,0.0,40,0.00,,,0.00,87,WeatherHawk,2013-04-04 23:08:00,
2013-04-04 17:14:00,50.4,26.4,30.37,WNW,301,6.0,0.0,39,0.00,,,0.00,87,WeatherHawk,2013-04-04 23:14:00,
2013-04-04 17:19:00,50.5,25.9,30.37,NNW,333,9.0,0.0,38,0.00,,,0.00,94,WeatherHawk,2013-04-04 23:19:00,
2013-04-04 17:24:00,50.5,26.5,30.37,NW,311,10.0,0.0,39,0.00,,,0.00,80,WeatherHawk,2013-04-04 23:24:00,
2013-04-04 17:30:00,50.7,26.6,30.37,NE,36,4.0,0.0,39,0.00,,,0.00,70,WeatherHawk,2013-04-04 23:30:00,
2013-04-04 17:35:00,50.5,26.5,30.37,NNW,333,11.0,-999.0,39,0.00,,,0.00,61,WeatherHawk,2013-04-04 23:35:00,
2013-04-04 17:40:00,50.3,26.9,30.38,NW,316,8.0,0.0,40,0.00,,,0.00,51,WeatherHawk,2013-04-04 23:40:00,
2013-04-04 17:45:00,50.3,26.9,30.38,NNW,341,10.0,-999.0,40,0.00,,,0.00,45,WeatherHawk,2013-04-04 23:45:00,
2013-04-04 17:50:00,50.5,27.7,30.38,NW,313,7.0,0.0,41,0.00,,,0.00,41,WeatherHawk,2013-04-04 23:50:00,
2013-04-04 17:55:00,50.5,27.1,30.38,WNW,303,7.0,0.0,40,0.00,,,0.00,39,WeatherHawk,2013-04-04 23:55:00,
2013-04-04 18:00:00,50.5,27.7,30.37,WNW,296,6.0,0.0,41,0.00,,,0.00,30,WeatherHawk,2013-04-05 00:00:00,
2013-04-04 18:06:00,50.5,27.7,30.38,NW,324,9.0,0.0,41,0.00,,,0.00,31,WeatherHawk,2013-04-05 00:06:00,
2013-04-04 18:11:00,50.5,27.7,30.38,NNW,329,5.0,0.0,41,0.00,,,0.00,28,WeatherHawk,2013-04-05 00:11:00,
2013-04-04 18:16:00,50.5,27.7,30.37,NNW,332,7.0,0.0,41,0.00,,,0.00,17,WeatherHawk,2013-04-05 00:16:00,
2013-04-04 18:21:00,50.6,28.3,30.37,WNW,294,4.0,0.0,42,0.00,,,0.00,12,WeatherHawk,2013-04-05 00:21:00,
2013-04-04 18:27:00,50.5,28.3,30.38,WNW,285,6.0,0.0,42,0.00,,,0.00,8,WeatherHawk,2013-04-05 00:27:00,
2013-04-04 18:32:00,50.5,28.3,30.37,NW,318,6.0,0.0,42,0.00,,,0.00,6,WeatherHawk,2013-04-05 00:32:00,
2013-04-04 18:37:00,50.5,28.8,30.38,NW,306,5.0,0.0,43,0.00,,,0.00,3,WeatherHawk,2013-04-05 00:37:00,
2013-04-04 18:43:00,50.5,28.2,30.37,NNW,340,5.0,0.0,42,0.00,,,0.00,3,WeatherHawk,2013-04-05 00:43:00,
2013-04-04 18:48:00,50.5,28.3,30.37,NW,326,6.0,0.0,42,0.00,,,0.00,2,WeatherHawk,2013-04-05 00:48:00,
2013-04-04 18:53:00,50.4,28.8,30.38,NE,55,3.0,0.0,43,0.00,,,0.00,2,WeatherHawk,2013-04-05 00:53:00,
2013-04-04 18:58:00,50.5,28.9,30.39,NW,308,7.0,0.0,43,0.00,,,0.00,0,WeatherHawk,2013-04-05 00:58:00,
2013-04-04 19:03:00,50.5,28.8,30.39,NNW,328,2.0,0.0,43,0.00,,,0.00,0,WeatherHawk,2013-04-05 01:03:00,
2013-04-04 19:08:00,50.4,28.8,30.39,SSW,213,2.0,0.0,43,0.00,,,0.00,0,WeatherHawk,2013-04-05 01:08:00,
2013-04-04 19:13:00,50.4,29.3,30.39,West,280,3.0,0.0,44,0.00,,,0.00,0,WeatherHawk,2013-04-05 01:13:00,
2013-04-04 19:18:00,50.4,29.3,30.39,WNW,295,3.0,0.0,44,0.00,,,0.00,0,WeatherHawk,2013-04-05 01:18:00,
2013-04-04 19:23:00,50.6,29.0,30.39,NNW,342,5.0,0.0,43,0.00,,,0.00,0,WeatherHawk,2013-04-05 01:23:00,
2013-04-04 19:29:00,50.4,29.4,30.38,NNW,335,4.0,0.0,44,0.00,,,0.00,0,WeatherHawk,2013-04-05 01:29:00,
2013-04-04 19:34:00,50.3,29.3,30.39,NNW,345,6.0,0.0,44,0.00,,,0.00,1,WeatherHawk,2013-04-05 01:34:00,
2013-04-04 19:40:00,50.2,29.7,30.39,NE,37,3.0,0.0,45,0.00,,,0.00,0,WeatherHawk,2013-04-05 01:40:00,
2013-04-04 19:45:00,50.2,29.7,30.39,WNW,287,4.0,0.0,45,0.00,,,0.00,0,WeatherHawk,2013-04-05 01:45:00,
2013-04-04 19:50:00,50.3,29.7,30.39,WNW,291,5.0,0.0,45,0.00,,,0.00,1,WeatherHawk,2013-04-05 01:50:00,
2013-04-04 19:55:00,50.3,29.8,30.39,NW,313,7.0,-999.0,45,0.00,,,0.00,1,WeatherHawk,2013-04-05 01:55:00,
2013-04-04 20:00:00,50.2,29.7,30.40,WSW,244,0.0,0.0,45,0.00,,,0.00,1,WeatherHawk,2013-04-05 02:00:00,
2013-04-04 20:05:00,50.4,29.3,30.40,WNW,296,4.0,0.0,44,0.00,,,0.00,0,WeatherHawk,2013-04-05 02:05:00,
2013-04-04 20:11:00,50.4,29.4,30.40,NW,324,4.0,0.0,44,0.00,,,0.00,1,WeatherHawk,2013-04-05 02:11:00,
2013-04-04 20:16:00,50.3,29.2,30.40,WSW,238,4.0,0.0,44,0.00,,,0.00,0,WeatherHawk,2013-04-05 02:16:00,
2013-04-04 20:22:00,50.3,29.3,30.40,SW,224,3.0,0.0,44,0.00,,,0.00,0,WeatherHawk,2013-04-05 02:22:00,
2013-04-04 20:27:00,50.4,28.7,30.40,WNW,303,4.0,0.0,43,0.00,,,0.00,0,WeatherHawk,2013-04-05 02:27:00,
2013-04-04 20:32:00,50.4,28.8,30.41,NW,318,5.0,0.0,43,0.00,,,0.00,1,WeatherHawk,2013-04-05 02:32:00,
2013-04-04 20:37:00,50.2,29.1,30.41,ENE,66,1.0,0.0,44,0.00,,,0.00,0,WeatherHawk,2013-04-05 02:37:00,
2013-04-04 20:43:00,50.2,29.2,30.41,WNW,291,3.0,0.0,44,0.00,,,0.00,1,WeatherHawk,2013-04-05 02:43:00,
2013-04-04 20:48:00,50.3,29.8,30.41,WNW,289,2.0,0.0,45,0.00,,,0.00,0,WeatherHawk,2013-04-05 02:48:00,
2013-04-04 20:54:00,50.2,29.7,30.42,WNW,293,4.0,0.0,45,0.00,,,0.00,1,WeatherHawk,2013-04-05 02:54:00,
2013-04-04 20:59:00,50.2,29.7,30.42,NW,321,3.0,0.0,45,0.00,,,0.00,0,WeatherHawk,2013-04-05 02:59:00,
2013-04-04 21:04:00,50.1,30.1,30.43,WNW,283,4.0,0.0,46,0.00,,,0.00,1,WeatherHawk,2013-04-05 03:04:00,
2013-04-04 21:09:00,50.1,29.6,30.42,SSW,209,3.0,0.0,45,0.00,,,0.00,0,WeatherHawk,2013-04-05 03:09:00,
2013-04-04 21:15:00,50.1,30.1,30.43,WNW,286,4.0,0.0,46,0.00,,,0.00,0,WeatherHawk,2013-04-05 03:15:00,
2013-04-04 21:20:00,50.0,29.5,30.43,NNE,17,0.0,0.0,45,0.00,,,0.00,0,WeatherHawk,2013-04-05 03:20:00,
2013-04-04 21:25:00,49.9,29.9,30.43,South,171,1.0,0.0,46,0.00,,,0.00,0,WeatherHawk,2013-04-05 03:25:00,
2013-04-04 21:30:00,49.8,29.8,30.43,WNW,287,3.0,0.0,46,0.00,,,0.00,1,WeatherHawk,2013-04-05 03:30:00,
2013-04-04 21:35:00,48.9,29.6,30.44,SSW,193,0.0,0.0,47,0.00,,,0.00,1,WeatherHawk,2013-04-05 03:35:00,
2013-04-04 21:40:00,49.4,31.0,30.43,West,279,2.0,0.0,49,0.00,,,0.00,0,WeatherHawk,2013-04-05 03:40:00,
2013-04-04 21:45:00,49.3,30.9,30.44,North,0,2.0,0.0,49,0.00,,,0.00,0,WeatherHawk,2013-04-05 03:45:00,
2013-04-04 21:50:00,48.8,31.5,30.44,WNW,298,2.0,0.0,51,0.00,,,0.00,1,WeatherHawk,2013-04-05 03:50:00,
2013-04-04 21:57:00,48.1,31.3,30.45,NNW,329,0.0,0.0,52,0.00,,,0.00,0,WeatherHawk,2013-04-05 03:57:00,
2013-04-04 22:00:00,48.4,32.0,30.45,North,1,2.0,0.0,53,0.00,,,0.00,1,WeatherHawk,2013-04-05 04:00:00,
2013-04-04 22:01:00,48.1,31.8,30.45,SW,221,0.0,0.0,53,0.00,,,0.00,1,WeatherHawk,2013-04-05 04:01:00,
2013-04-04 22:02:00,47.9,32.1,30.45,SSE,166,0.0,0.0,54,0.00,,,0.00,0,WeatherHawk,2013-04-05 04:02:00,
2013-04-04 22:07:00,47.6,32.2,30.45,NE,37,0.0,0.0,55,0.00,,,0.00,1,WeatherHawk,2013-04-05 04:07:00,
2013-04-04 22:13:00,47.3,32.8,30.45,WNW,290,1.0,0.0,57,0.00,,,0.00,0,WeatherHawk,2013-04-05 04:13:00,
2013-04-04 22:18:00,47.5,33.4,30.45,WSW,256,0.0,0.0,58,0.00,,,0.00,0,WeatherHawk,2013-04-05 04:18:00,
2013-04-04 22:23:00,47.0,33.4,30.45,WSW,252,0.0,0.0,59,0.00,,,0.00,0,WeatherHawk,2013-04-05 04:23:00,
2013-04-04 22:28:00,47.0,33.8,30.45,SW,223,0.0,0.0,60,0.00,,,0.00,0,WeatherHawk,2013-04-05 04:28:00,
2013-04-04 22:33:00,46.6,33.9,30.45,WSW,250,0.0,0.0,61,0.00,,,0.00,0,WeatherHawk,2013-04-05 04:33:00,
2013-04-04 22:39:00,46.6,34.7,30.46,NW,322,0.0,0.0,63,0.00,,,0.00,0,WeatherHawk,2013-04-05 04:39:00,
2013-04-04 22:44:00,46.4,34.5,30.45,West,275,1.0,0.0,63,0.00,,,0.00,0,WeatherHawk,2013-04-05 04:44:00,
2013-04-04 22:49:00,46.7,35.2,30.45,West,263,0.0,0.0,64,0.00,,,0.00,1,WeatherHawk,2013-04-05 04:49:00,
2013-04-04 22:54:00,46.4,35.2,30.45,SW,227,1.0,0.0,65,0.00,,,0.00,0,WeatherHawk,2013-04-05 04:54:00,
2013-04-04 23:00:00,46.0,35.3,30.45,SW,229,0.0,-999.0,66,0.00,,,0.00,0,WeatherHawk,2013-04-05 05:00:00,
2013-04-04 23:05:00,45.6,35.3,30.45,SW,228,0.0,0.0,67,0.00,,,0.00,0,WeatherHawk,2013-04-05 05:05:00,
2013-04-04 23:10:00,45.7,35.4,30.45,NNW,341,0.0,0.0,67,0.00,,,0.00,0,WeatherHawk,2013-04-05 05:10:00,
2013-04-04 23:15:00,45.2,35.3,30.46,West,281,0.0,0.0,68,0.00,,,0.00,0,WeatherHawk,2013-04-05 05:15:00,
2013-04-04 23:20:00,45.2,35.6,30.45,SW,221,0.0,-999.0,69,0.00,,,0.00,1,WeatherHawk,2013-04-05 05:20:00,
2013-04-04 23:25:00,45.7,36.5,30.46,West,269,0.0,-999.0,70,0.00,,,0.00,0,WeatherHawk,2013-04-05 05:25:00,
2013-04-04 23:30:00,45.9,36.3,30.46,WSW,249,0.0,-999.0,69,0.00,,,0.00,0,WeatherHawk,2013-04-05 05:30:00,
2013-04-04 23:35:00,45.6,36.0,30.46,West,262,0.0,-999.0,69,0.00,,,0.00,0,WeatherHawk,2013-04-05 05:35:00,
2013-04-04 23:40:00,45.7,36.1,30.46,WNW,282,0.0,-999.0,69,0.00,,,0.00,1,WeatherHawk,2013-04-05 05:40:00,
2013-04-04 23:45:00,45.3,35.8,30.46,WSW,242,0.0,0.0,69,0.00,,,0.00,0,WeatherHawk,2013-04-05 05:45:00,
2013-04-04 23:50:00,45.3,36.1,30.45,NNW,339,0.0,0.0,70,0.00,,,0.00,0,WeatherHawk,2013-04-05 05:50:00,
2013-04-04 23:55:00,45.0,36.5,30.46,WNW,299,0.0,0.0,72,0.00,,,0.00,0,WeatherHawk,2013-04-05 05:55:00,